Weather History for Dundee, United Kingdom

Change the Weather History Date:

Wednesday, May 15, 2013

  Actual Average Record
Temperature  
Mean Temperature 48 °F -  
Max Temperature 51 °F 58 °F 64 °F (2004)
Min Temperature 46 °F 49 °F 39 °F (2012)
Degree Days  
Heating Degree Days 16    
Moisture  
Dew Point 41 °F    
Average Humidity 72    
Maximum Humidity 93    
Minimum Humidity 58    
Precipitation  
Precipitation 0.00 in - - ()
Sea Level Pressure  
Sea Level Pressure 29.31 in    
Wind  
Wind Speed 8 mph ()    
Max Wind Speed 14 mph    
Max Gust Speed -    
Visibility 6.2 miles    
Events Rain    
Averages and records for this station are not official NWS values.
T = Trace of Precipitation, MM = Missing Value Source: Averaged Metar Reports

Daily Weather History Graph

Daily Weather History Graph

Search for Another Location

Airport:

Trip Planner

Search our weather history database for the weather conditions in past years. The results will help you decide how hot, cold, wet, or windy it might be!

Date:

Astronomy

May. 15, 2013 Rise Set
Actual Time 4:56 AM BST 9:21 PM BST
Civil Twilight 4:05 AM BST 10:13 PM BST
Nautical Twilight 2:44 AM BST 11:35 PM BST
Astronomical Twilight Sun does not rise Sun does not rise
Moon 9:27 AM BST (5/15) 12:51 AM BST (5/15)
Length of Visible Light 18h 07m
Length of Day
16h 24m
Waxing Crescent, 25% of the Moon is Illuminated
May 15
Waxing Crescent
May 18
First Quarter
May 25
Full
May 31
Last Quarter
Jun 8
New

Hourly Weather History & Observations

Time (BST) Temp. Windchill Dew Point Humidity Pressure Visibility Wind Dir Wind Speed Gust Speed Precip Events Conditions
7:20 AM 46.4 °F 41.5 °F 37.4 °F 71% 29.39 in 6.2 mi North 10.4 mph - N/A   Mostly Cloudy
7:50 AM 46.4 °F 41.9 °F 37.4 °F 71% 29.39 in 6.2 mi North 9.2 mph - N/A   Mostly Cloudy
8:20 AM 48.2 °F - 39.2 °F 71% 29.39 in 6.2 mi NNE 8.1 mph - N/A   Scattered Clouds
8:50 AM 50.0 °F - 39.2 °F 66% 29.36 in 6.2 mi NNE 11.5 mph - N/A   Scattered Clouds
9:20 AM 50.0 °F - 37.4 °F 62% 29.36 in 6.2 mi NNE 13.8 mph - N/A   Scattered Clouds
10:20 AM 50.0 °F - 39.2 °F 66% 29.36 in 6.2 mi NE 9.2 mph - N/A   Scattered Clouds
10:50 AM 50.0 °F - 39.2 °F 66% 29.36 in 6.2 mi NNE 11.5 mph - N/A   Scattered Clouds
11:20 AM 50.0 °F - 39.2 °F 66% 29.33 in 6.2 mi NE 10.4 mph - N/A   Scattered Clouds
11:50 AM 51.8 °F - 37.4 °F 58% 29.33 in 6.2 mi NNE 9.2 mph - N/A   Scattered Clouds
12:20 PM 51.8 °F - 39.2 °F 62% 29.30 in 6.2 mi NNE 6.9 mph - N/A   Scattered Clouds
1:20 PM 51.8 °F - 41.0 °F 67% 29.30 in 6.2 mi ENE 9.2 mph - N/A   Scattered Clouds
1:50 PM 51.8 °F - 41.0 °F 67% 29.30 in 6.2 mi ENE 10.4 mph - N/A   Mostly Cloudy
2:20 PM 50.0 °F - 41.0 °F 71% 29.27 in 6.2 mi ENE 9.2 mph - N/A Rain Light Rain Showers
2:50 PM 51.8 °F - 42.8 °F 71% 29.27 in 6.2 mi ENE 6.9 mph - N/A   Scattered Clouds
3:20 PM 50.0 °F - 42.8 °F 76% 29.27 in 6.2 mi SE 8.1 mph - N/A   Mostly Cloudy
3:50 PM 48.2 °F - 42.8 °F 82% 29.27 in 6.2 mi SE 6.9 mph - N/A   Mostly Cloudy
4:20 PM 46.4 °F 44.3 °F 42.8 °F 87% 29.30 in 6.2 mi East 4.6 mph - N/A Rain Light Rain Showers
5:20 PM 46.4 °F 42.9 °F 44.6 °F 93% 29.27 in 6.2 mi South 6.9 mph - N/A   Mostly Cloudy
5:50 PM 48.2 °F - 42.8 °F 82% 29.27 in 6.2 mi South 2.3 mph - N/A   Mostly Cloudy
6:20 PM 50.0 °F - 42.8 °F 76% 29.27 in 6.2 mi SW 3.5 mph - N/A Rain Light Rain Showers
6:50 PM 50.0 °F - 44.6 °F 82% 29.27 in 6.2 mi SW 3.5 mph - N/A Rain Light Rain Showers
7:20 PM 50.0 °F - 44.6 °F 82% 29.27 in 6.2 mi West 3.5 mph - N/A   Scattered Clouds
7:50 PM 50.0 °F - 44.6 °F 82% 29.27 in 6.2 mi Calm Calm - N/A   Scattered Clouds
8:20 PM 51.8 °F - 39.2 °F 62% 29.27 in 6.2 mi West 8.1 mph - N/A   Scattered Clouds
8:50 PM 50.0 °F - 39.2 °F 66% 29.30 in 6.2 mi West 10.4 mph - N/A   Scattered Clouds
9:20 PM 48.2 °F - 39.2 °F 71% 29.30 in 6.2 mi West 9.2 mph - N/A   Scattered Clouds
9:50 PM 48.2 °F - 39.2 °F 71% 29.33 in 6.2 mi West 11.5 mph - N/A   Scattered Clouds